Weather History for KSGF - October, 2013

Change the Weather History Date:

Tuesday, October 1, 2013

  Actual Average Record
Temperature  
Mean Temperature 74 °F 63 °F  
Max Temperature 83 °F 74 °F 92 °F (1953)
Min Temperature 65 °F 51 °F 32 °F (1985)
Degree Days  
Heating Degree Days 0 5  
Month to date heating degree days 0 5  
Since 1 July heating degree days 14 60  
Cooling Degree Days 9 2  
Month to date cooling degree days 9 2  
Year to date cooling degree days 1382 1361  
Growing Degree Days 23 (Base 50)    
Moisture  
Dew Point 65 °F    
Average Humidity 74    
Maximum Humidity 100    
Minimum Humidity 47    
Precipitation  
Precipitation 0.00 in 0.13 in 2.84 in (1986)
Month to date precipitation 0.00 0.13  
Year to date precipitation 40.33 34.85  
Snow  
Snow 0.00 in - - ()
Month to date snowfall 0.0  
Since 1 July snowfall 0.0  
Since 1 September snowfall 0.0  
Snow Depth 0.00 in    
Sea Level Pressure  
Sea Level Pressure 29.96 in    
Wind  
Wind Speed 8 mph (South)    
Max Wind Speed 15 mph    
Max Gust Speed 20 mph    
Visibility 7 miles    
Events Fog    
T = Trace of Precipitation, MM = Missing Value Source: NWS Daily Summary

Daily Weather History Graph

Daily Weather History Graph

Search for Another Location

Airport or City:

Trip Planner

Search our weather history database for the weather conditions in past years. The results will help you decide how hot, cold, wet, or windy it might be!

Date:

Astronomy

Oct. 01, 2013 Rise Set
Actual Time 7:09 AM CDT 6:56 PM CDT
Civil Twilight 6:43 AM CDT 7:22 PM CDT
Nautical Twilight 6:13 AM CDT 7:52 PM CDT
Astronomical Twilight 5:42 AM CDT 8:22 PM CDT
Moon 3:47 AM CDT (10/1) 4:57 PM CDT (10/1)
Length of Visible Light 12h 39m
Length of Day
11h 47m
Waning Crescent, 12% of the Moon is Illuminated
Oct 1
Waning Crescent
Oct 4
New
Oct 11
First Quarter
Oct 18
Full
Oct 26
Last Quarter

Hourly Weather History & Observations

Time (CDT) Temp. Heat Index Dew Point Humidity Pressure Visibility Wind Dir Wind Speed Gust Speed Precip Events Conditions
12:52 AM 66.0 °F - 63.0 °F 90% 29.89 in 10.0 mi SSE 11.5 mph - N/A   Clear
1:52 AM 66.0 °F - 64.0 °F 93% 29.89 in 10.0 mi SSE 9.2 mph - N/A   Clear
2:52 AM 66.0 °F - 64.0 °F 93% 29.89 in 10.0 mi SSE 10.4 mph - N/A   Clear
3:52 AM 64.9 °F - 64.0 °F 97% 29.89 in 9.0 mi SSE 8.1 mph - N/A   Clear
4:52 AM 64.9 °F - 64.0 °F 97% 29.91 in 8.0 mi SSE 8.1 mph - N/A   Scattered Clouds
5:12 AM 64.9 °F - 64.0 °F 97% 29.95 in 7.0 mi SSE 10.4 mph - N/A   Scattered Clouds
5:20 AM 66.0 °F - 64.0 °F 93% 29.95 in 7.0 mi SSE 9.2 mph - N/A   Mostly Cloudy
5:52 AM 66.0 °F - 64.9 °F 96% 29.93 in 2.0 mi SSE 10.4 mph - N/A   Overcast
6:00 AM 66.0 °F - 64.9 °F 96% 29.96 in 1.2 mi SSE 11.5 mph - N/A   Overcast
6:17 AM 66.0 °F - 64.9 °F 96% 29.96 in 0.8 mi SSE 11.5 mph - N/A   Mist
6:52 AM 66.0 °F - 66.0 °F 100% 29.95 in 0.5 mi South 6.9 mph - N/A Fog Fog
7:24 AM 66.0 °F - 66.0 °F 100% 29.99 in 0.2 mi South 8.1 mph - N/A Fog Fog
7:52 AM 66.9 °F - 66.0 °F 97% 29.97 in 0.2 mi SSE 10.4 mph - N/A Fog Fog
8:39 AM 68.0 °F - 66.9 °F 96% 30.00 in 0.5 mi SSE 8.1 mph - N/A Fog Fog
8:52 AM 68.0 °F - 66.9 °F 96% 29.98 in 0.8 mi SSE 9.2 mph - N/A   Mist
8:59 AM 68.0 °F - 66.9 °F 96% 30.00 in 1.2 mi SSE 10.4 mph - N/A   Overcast
9:19 AM 68.0 °F - 68.0 °F 100% 30.01 in 2.5 mi SSE 9.2 mph - N/A   Overcast
9:31 AM 68.0 °F - 68.0 °F 100% 30.01 in 4.0 mi South 10.4 mph - N/A   Overcast
9:52 AM 69.1 °F - 68.0 °F 96% 29.99 in 5.0 mi SSE 9.2 mph - N/A   Overcast
10:25 AM 70.0 °F - 68.0 °F 93% 30.02 in 8.0 mi South 8.1 mph - N/A   Overcast
10:52 AM 72.0 °F - 68.0 °F 87% 30.00 in 10.0 mi South 9.2 mph - N/A   Mostly Cloudy
11:10 AM 73.9 °F - 68.0 °F 82% 30.03 in 10.0 mi South 9.2 mph - N/A   Mostly Cloudy
11:29 AM 75.9 °F - 68.0 °F 76% 30.03 in 10.0 mi South 6.9 mph - N/A   Mostly Cloudy
11:52 AM 75.0 °F - 66.0 °F 73% 29.99 in 10.0 mi SSW 9.2 mph - N/A   Scattered Clouds
12:52 PM 80.1 °F 81.5 °F 63.0 °F 56% 29.98 in 10.0 mi South 15.0 mph - N/A   Clear
1:52 PM 81.0 °F 81.9 °F 62.1 °F 52% 29.95 in 10.0 mi South 10.4 mph - N/A   Partly Cloudy
2:52 PM 82.0 °F 83.0 °F 62.1 °F 51% 29.94 in 10.0 mi South 8.1 mph - N/A   Mostly Cloudy
3:52 PM 82.9 °F 83.7 °F 62.1 °F 49% 29.93 in 10.0 mi SSW 6.9 mph 17.3 mph N/A   Partly Cloudy
4:52 PM 82.9 °F 83.3 °F 61.0 °F 47% 29.93 in 10.0 mi SSW 10.4 mph - N/A   Scattered Clouds
5:52 PM 81.0 °F 81.9 °F 62.1 °F 52% 29.94 in 10.0 mi SSW 4.6 mph - N/A   Clear
6:52 PM 75.9 °F - 63.0 °F 64% 29.94 in 10.0 mi South 4.6 mph - N/A   Clear
7:52 PM 70.0 °F - 64.0 °F 81% 29.95 in 10.0 mi Calm Calm - N/A   Clear
8:52 PM 66.9 °F - 63.0 °F 87% 29.97 in 10.0 mi SE 5.8 mph - N/A   Clear
9:52 PM 69.1 °F - 63.0 °F 81% 29.97 in 10.0 mi SE 6.9 mph - N/A   Clear
10:52 PM 69.1 °F - 63.0 °F 81% 29.98 in 10.0 mi SSE 6.9 mph - N/A   Clear
11:52 PM 68.0 °F - 64.0 °F 87% 29.98 in 10.0 mi SSE 8.1 mph - N/A   Clear